[[{"header":{"parameterUnit":"m.s-1","parameterCategory":1,"la1":30.2991,"la2":30.254,"lo1":-89.0895,"lo2":-89.0444,"dy":0.0017,"dx":0.0017,"nx":28,"ny":28,"refTime":"2025-06-11T21:00:00:Z","depth":0,"parameterNumber":2,"parameterNumberName":"U-component_of_WINDS"},"data":[0,0,0,0,0,0,0,0,0,0,0,0,0,0,0,0,0,0,0,0,0,0,0,0,0,0,0,0,0,0,0,0,0,0,0,0,0,0,0,0,0,0,0,0,0,0,0,0,0,0,0,0,0,0,0,0,0,0,-2.756,-2.7562,0,-2.7701,-2.7702,-2.7704,-2.7728,-2.7727,-2.7725,-2.7724,-2.7866,-2.7871,-2.7876,0,0,0,0,0,0,0,0,0,0,0,0,0,-2.731,-2.7314,-2.756,-2.7562,-2.7563,-2.7701,-2.7703,-2.7704,-2.7728,-2.7726,-2.7725,-2.7724,-2.7865,-2.7871,-2.7877,0,0,0,0,0,0,0,0,0,0,0,0,0,-2.7431,-2.7316,-2.756,-2.7592,-2.7596,-2.77,-2.7703,-2.7705,-2.7728,-2.7726,-2.7725,-2.7723,-2.7863,-2.787,-2.7877,-2.7959,0,0,-2.79,-2.7903,0,0,0,0,0,0,0,0,-2.7424,-2.7441,-2.7585,-2.759,-2.7595,-2.7695,-2.7667,-2.779,-2.7729,-2.7678,-2.7724,-2.7722,-2.7811,-2.7822,-2.7853,-2.7965,-2.7972,-2.7901,-2.7905,-2.7908,-2.791,0,0,0,0,0,0,0,-2.7416,-2.7435,-2.7616,-2.7587,-2.7593,-2.7599,-2.7614,-2.769,-2.7753,-2.7682,-2.7684,-2.7701,-2.7813,-2.7845,-2.7856,-2.7974,-2.79,-2.7907,-2.7911,-2.7914,-2.816,-2.8162,0,0,0,0,0,0,-2.7402,-2.7427,-2.7611,-2.762,-2.7504,-2.7605,-2.7622,-2.7665,-2.7752,-2.7764,-2.7702,-2.7701,-2.7834,-2.7847,-2.7861,-2.7962,-2.7908,-2.7915,-2.7919,-2.8158,-2.8161,-2.8163,0,0,0,0,0,0,-2.7397,-2.7418,-2.7605,-2.7524,-2.7549,-2.7611,-2.7659,-2.7668,-2.7701,-2.7767,-2.7778,-2.7724,-2.7833,-2.7851,-2.7934,-2.7967,-2.7918,-2.7925,-2.8156,-2.8159,-2.8162,-2.8164,0,0,0,0,0,0,-2.7389,-2.7416,-2.7448,-2.7525,-2.7553,-2.7677,-2.7661,-2.7672,-2.7714,-2.7714,-2.779,-2.7801,-2.7833,-2.7923,-2.7942,-2.7976,-2.7931,-2.8153,-2.8157,-2.8161,-2.8161,-2.8167,-2.8172,0,0,0,0,0,-2.738,-2.7443,-2.7449,-2.7472,-2.7594,-2.7679,-2.7695,-2.773,-2.7716,-2.7748,-2.7791,-2.7799,-2.7961,-2.7932,-2.7953,-2.799,-2.8151,-2.8156,-2.816,-2.8159,-2.8166,-2.8172,0,0,0,0,0,0,-2.7367,-2.7453,-2.7462,-2.7551,-2.7607,-2.7682,-2.7724,-2.7736,-2.7797,-2.7795,-2.7836,-2.7853,-2.7934,-2.7971,-2.7937,-2.8073,-2.8055,-2.8064,-2.8046,-2.8053,-2.8059,-2.8048,-2.7937,0,0,0,0,0,-2.7375,-2.7437,-2.7509,-2.758,-2.7608,-2.7661,-2.77,-2.7722,-2.7782,-2.7806,-2.7855,-2.7912,-2.7976,-2.8017,-2.8079,-2.8167,-2.8184,-2.8203,-2.8208,-2.8212,-2.8219,-2.8268,-2.8277,-2.8179,-2.8179,-2.8178,0,0,-2.7391,-2.7446,-2.7482,-2.7579,-2.7626,-2.7688,-2.7681,-2.7748,-2.7795,-2.7816,-2.7898,-2.7936,-2.8002,-2.8088,-2.8128,-2.8121,-2.825,-2.8218,-2.8221,-2.8226,-2.8274,-2.8283,-2.8291,-2.8182,-2.8181,-2.8181,0,0,-2.7452,-2.75,-2.7565,-2.7612,-2.7683,-2.7718,-2.7733,-2.7807,-2.7833,-2.7916,-2.7933,-2.7989,-2.8098,-2.8145,-2.8183,-2.8263,-2.8272,-2.8282,-2.8308,-2.8355,-2.8363,-2.837,-2.8398,-2.8407,-2.8289,-2.8289,-2.8289,0,-2.7463,-2.7559,-2.7597,-2.7663,-2.7705,-2.7728,-2.7794,-2.7837,-2.7924,-2.7952,-2.7943,-2.808,-2.8127,-2.8224,-2.8243,-2.8274,-2.8292,-2.8273,-2.8359,-2.8367,-2.8374,-2.84,-2.8411,-2.829,-2.829,-2.8289,-2.8289,0,-2.7569,-2.7635,-2.7679,-2.7763,-2.781,-2.7875,-2.7923,-2.7966,-2.7984,-2.802,-2.8104,-2.8161,-2.8235,-2.826,-2.8279,-2.836,-2.8353,-2.8351,-2.8333,-2.8383,-2.8409,-2.8419,-2.8291,-2.829,-2.829,-2.829,0,0,-2.7625,-2.7729,-2.7745,-2.7783,-2.7863,-2.7915,-2.7981,-2.8054,-2.809,-2.8149,-2.8206,-2.8298,-2.8297,-2.834,-2.8364,-2.8405,-2.8464,-2.8398,-2.8401,-2.8408,-2.8556,-2.8556,-2.8567,-2.8471,-2.8473,-2.8475,-2.855,0,-2.7695,-2.7815,-2.7851,-2.7951,-2.8012,-2.8035,-2.8093,-2.8148,-2.8183,-2.824,-2.8279,-2.8343,-2.8337,-2.8363,-2.8405,-2.8448,-2.8494,-2.8443,-2.8523,-2.8525,-2.8504,-2.8581,-2.8581,-2.8649,-2.856,-2.8562,-2.8563,0,-2.7793,-2.7854,-2.796,-2.8032,-2.8059,-2.8111,-2.8181,-2.8235,-2.8298,-2.832,-2.8369,-2.839,-2.846,-2.8439,-2.8535,-2.8499,-2.8534,-2.856,-2.8563,-2.8571,-2.8546,-2.859,-2.8672,-2.8682,-2.858,-2.8578,-2.8577,0,-2.7822,-2.7931,-2.8009,-2.8041,-2.8128,-2.8163,-2.82,-2.8261,-2.8303,-2.8364,-2.8391,-2.8459,-2.8497,-2.8549,-2.8587,-2.8568,-2.868,-2.8662,-2.87,-2.8699,-2.8721,-2.8719,-2.8809,-2.8745,-2.8745,-2.8745,-2.8745,0,-2.7896,-2.796,-2.8024,-2.8071,-2.8143,-2.8184,-2.8255,-2.8293,-2.8347,-2.8402,-2.8426,-2.8477,-2.8526,-2.8583,-2.8614,-2.8688,-2.8705,-2.8725,-2.8732,-2.8722,-2.8719,-2.8745,-2.8741,-2.8748,-2.8747,-2.8747,-2.8746,0,-2.794,-2.7986,-2.8072,-2.8146,-2.8167,-2.8217,-2.828,-2.8327,-2.8364,-2.8433,-2.8452,-2.8509,-2.8578,-2.8622,-2.8709,-2.873,-2.8811,-2.8817,-2.879,-2.8793,-2.8828,-2.8824,-2.8936,-2.8953,-2.8879,-2.888,-2.888,0,-2.7984,-2.8034,-2.8114,-2.8153,-2.8191,-2.8253,-2.8296,-2.8338,-2.8381,-2.8457,-2.8494,-2.8565,-2.8623,-2.8732,-2.8781,-2.8848,-2.8855,-2.889,-2.8865,-2.8854,-2.8855,-2.8851,-2.8856,-2.8894,-2.8894,-2.8895,-2.8895,0,-2.8057,-2.8077,-2.8138,-2.8207,-2.8257,-2.8313,-2.8369,-2.84,-2.8452,-2.8499,-2.857,-2.8615,-2.8705,-2.8774,-2.8846,-2.8884,-2.8898,-2.8903,-2.8915,-2.8905,-2.8887,-2.8896,-2.88,-2.89,-2.8899,-2.8899,-2.8899,-2.8899,-2.8102,-2.8147,-2.821,-2.8277,-2.8324,-2.8376,-2.8424,-2.8466,-2.8526,-2.8603,-2.8624,-2.8698,-2.8759,-2.8857,-2.8896,-2.8954,-2.8949,-2.8967,-2.8971,-2.8975,-2.8975,-2.8878,-2.8967,-2.8967,-2.8967,-2.8967,-2.8967,0,-2.8175,-2.8217,-2.8278,-2.8356,-2.8409,-2.8418,-2.8481,-2.8524,-2.8589,-2.8645,-2.8702,-2.8784,-2.8851,-2.8906,-2.8975,-2.9011,-2.9019,-2.9027,-2.9025,-2.9033,-2.8975,-2.8957,-2.9019,-2.9019,-2.9019,-2.9019,-2.9019,-2.9019,-2.8219,-2.8296,-2.8323,-2.8423,-2.8465,-2.8538,-2.8572,-2.862,-2.8665,-2.8755,-2.8811,-2.8847,-2.8902,-2.8976,-2.9038,-2.9052,-2.9076,-2.9083,-2.9098,-2.9043,-2.9037,-2.9031,-2.9015,-2.9088,-2.9088,-2.9151,-2.9151,-2.9152]},{"header":{"parameterUnit":"m.s-1","parameterCategory":1,"la1":30.2991,"la2":30.254,"lo1":-89.0895,"lo2":-89.0444,"dy":0.0017,"dx":0.0017,"nx":28,"ny":28,"refTime":"2025-06-11T21:00:00:Z","depth":0,"parameterNumber":3,"parameterNumberName":"V-component_of_WINDS"},"data":[0,0,0,0,0,0,0,0,0,0,0,0,0,0,0,0,0,0,0,0,0,0,0,0,0,0,0,0,0,0,0,0,0,0,0,0,0,0,0,0,0,0,0,0,0,0,0,0,0,0,0,0,0,0,0,0,0,0,4.9385,4.9385,0,4.9406,4.9406,4.9407,4.9345,4.9343,4.9341,4.934,4.936,4.9362,4.9365,0,0,0,0,0,0,0,0,0,0,0,0,0,4.929,4.9292,4.9385,4.9385,4.9385,4.9406,4.9406,4.9407,4.9345,4.9343,4.9341,4.9339,4.9359,4.9362,4.9365,0,0,0,0,0,0,0,0,0,0,0,0,0,4.9323,4.9292,4.9385,4.9357,4.9355,4.9406,4.9406,4.9407,4.9346,4.9343,4.934,4.9338,4.9358,4.9362,4.9365,4.9443,0,0,4.9376,4.9377,0,0,0,0,0,0,0,0,4.9321,4.9326,4.9361,4.9359,4.9357,4.937,4.938,4.9419,4.9347,4.9349,4.9339,4.9336,4.9366,4.9368,4.9378,4.9444,4.9445,4.9376,4.9378,4.938,4.9381,0,0,0,0,0,0,0,4.9319,4.9325,4.9393,4.9362,4.9359,4.9343,4.9345,4.9387,4.9373,4.9349,4.9344,4.9348,4.9364,4.9375,4.9379,4.9445,4.9376,4.9379,4.9381,4.9383,4.9574,4.9577,0,0,0,0,0,0,4.932,4.9324,4.9392,4.9394,4.9332,4.9347,4.9349,4.9369,4.9372,4.937,4.935,4.9345,4.9371,4.9375,4.9379,4.9469,4.938,4.9383,4.9385,4.9571,4.9575,4.9578,0,0,0,0,0,0,4.9319,4.9327,4.9392,4.9358,4.9365,4.9352,4.9374,4.9371,4.9382,4.9374,4.9371,4.9365,4.9369,4.9374,4.9427,4.9469,4.9384,4.9388,4.9568,4.9573,4.9577,4.965,0,0,0,0,0,0,4.9316,4.9327,4.9357,4.9359,4.9367,4.944,4.9377,4.9373,4.9388,4.9381,4.9386,4.9384,4.9367,4.9423,4.9431,4.9472,4.939,4.9564,4.957,4.9575,4.9644,4.9657,4.9668,0,0,0,0,0,4.9313,4.9377,4.9359,4.9367,4.9404,4.9443,4.9447,4.9426,4.9392,4.9421,4.9416,4.9384,4.9464,4.9429,4.9437,4.948,4.9561,4.9568,4.9575,4.9639,4.9654,4.9667,0,0,0,0,0,0,4.9379,4.9376,4.9356,4.9423,4.9434,4.9432,4.9469,4.9444,4.9464,4.9457,4.943,4.9432,4.9489,4.949,4.9452,4.9555,4.9506,4.9515,4.9552,4.9567,4.9578,4.9575,4.9393,0,0,0,0,0,4.9402,4.9434,4.943,4.9489,4.9496,4.9482,4.9498,4.9481,4.9491,4.9495,4.9493,4.9504,4.9531,4.9549,4.9574,4.9645,4.9644,4.9678,4.969,4.97,4.9707,4.9743,4.9758,4.9601,4.9601,4.9601,0,0,4.9449,4.9451,4.9473,4.9502,4.9509,4.9542,4.9486,4.9524,4.9548,4.95,4.955,4.955,4.9559,4.9621,4.9649,4.9624,4.9751,4.9709,4.9716,4.9718,4.9751,4.9766,4.9779,4.9605,4.9604,4.9604,0,0,4.955,4.9556,4.9605,4.9612,4.9623,4.9613,4.9625,4.9628,4.9625,4.9675,4.964,4.9668,4.9716,4.9724,4.9734,4.9839,4.981,4.9848,4.9908,4.9943,4.9956,4.9967,5.0002,5.0015,4.9856,4.9856,4.9856,0,4.9606,4.9655,4.9633,4.9673,4.9686,4.9646,4.9694,4.9703,4.9721,4.973,4.9703,4.9761,4.9765,4.9827,4.9853,4.9864,4.9875,4.9846,4.9956,4.9967,4.9976,5.0009,5.0023,4.986,4.986,4.9859,4.9859,0,4.9723,4.9757,4.9796,4.9814,4.9832,4.9876,4.986,4.9881,4.9862,4.9855,4.9906,4.9909,4.9933,4.9947,4.993,5.0007,4.9991,4.9961,4.991,4.9996,5.0026,5.0039,4.9866,4.9865,4.9863,4.9862,0,0,4.9865,4.9871,4.9885,4.9892,4.99,4.9926,4.9969,4.9992,5.0009,5.0024,5.0057,5.0099,5.007,5.0082,5.0065,5.0097,5.0176,5.0062,5.0061,5.0081,5.0259,5.028,5.0295,5.0158,5.0161,5.0163,5.0257,0,4.9963,5.0035,5.0016,5.0087,5.0118,5.008,5.0117,5.0126,5.0121,5.0145,5.014,5.0169,5.013,5.0136,5.0166,5.016,5.0211,5.0154,5.0187,5.0189,5.0183,5.0312,5.0334,5.0424,5.0269,5.0271,5.0273,0,5.0086,5.0105,5.0179,5.0182,5.0194,5.0227,5.0246,5.0271,5.028,5.0274,5.0288,5.0265,5.0305,5.0257,5.0312,5.0273,5.0286,5.0285,5.0288,5.0288,5.0234,5.0313,5.0452,5.0464,5.0292,5.029,5.0289,0,5.018,5.0224,5.0273,5.0281,5.0285,5.0309,5.0312,5.0319,5.0334,5.0351,5.036,5.0382,5.0394,5.0411,5.0394,5.0361,5.0451,5.0401,5.0445,5.0446,5.0464,5.0462,5.0604,5.0477,5.0477,5.0476,5.0476,0,5.0289,5.0336,5.0315,5.0345,5.0396,5.0374,5.0424,5.0423,5.0429,5.0458,5.0427,5.0455,5.0432,5.0458,5.0445,5.0491,5.0497,5.0492,5.0488,5.0494,5.0494,5.05,5.0492,5.048,5.0479,5.0478,5.0478,0,5.0401,5.0389,5.044,5.0441,5.0442,5.0479,5.0479,5.0507,5.05,5.0536,5.0544,5.0532,5.0561,5.0546,5.0576,5.0567,5.0626,5.0615,5.0623,5.0619,5.0662,5.0658,5.0811,5.0829,5.0692,5.0694,5.0695,0,5.0471,5.0506,5.051,5.0527,5.0532,5.056,5.0575,5.0555,5.0572,5.0585,5.061,5.0636,5.0655,5.0702,5.0696,5.0718,5.0706,5.0758,5.0709,5.0713,5.0703,5.07,5.0703,5.0767,5.0769,5.077,5.0771,0,5.0595,5.0587,5.061,5.0631,5.065,5.0665,5.0678,5.0694,5.0674,5.0695,5.0723,5.0738,5.0768,5.0793,5.0812,5.0815,5.0789,5.0787,5.0798,5.0802,5.0805,5.0802,5.0647,5.0783,5.0782,5.0781,5.078,5.078,5.0686,5.0714,5.0721,5.0747,5.0755,5.0768,5.0793,5.0789,5.0813,5.0835,5.0823,5.0855,5.0863,5.0886,5.0892,5.0917,5.0896,5.0912,5.0916,5.0919,5.0924,5.0803,5.092,5.092,5.092,5.0919,5.0919,0,5.0806,5.0809,5.0833,5.0852,5.0873,5.0848,5.0861,5.0879,5.0908,5.0918,5.0937,5.0969,5.0994,5.099,5.1012,5.1033,5.1021,5.1039,5.1036,5.1036,5.0943,5.093,5.1048,5.1048,5.1048,5.1047,5.1047,5.1047,5.0871,5.0917,5.091,5.0959,5.0962,5.0993,5.1003,5.1014,5.1021,5.1058,5.1078,5.1076,5.1079,5.1101,5.1122,5.112,5.1129,5.115,5.1144,5.1056,5.1043,5.1031,5.1019,5.1153,5.1153,5.1235,5.1236,5.1237]}]]